BREEZE-M DEB, 34243

Orbit data source: Space-Track

BREEZE-M DEB, 34243 is space debris in HEO originally from a launch on Tue, 28 Feb 2006 UTC launched from the Tyuratam Missile And Space Complex (TTMTR). Debris objects in space refer to the collection of defunct objects orbiting the Earth. Examples of debris include non-operational satellites, rocket bodies, and fragments generated from explosions, collisions, or faulty payload assembly.

Loading next visibility...
Identifier
34243, 2006-006BJ
Orbit
HEO
Country
Flag of CISCIS
Related business
Manufacturer
Khrunichev
Mission
Spacecraft
Bus & Motor
Unknown
Mass
Unknown
Launch date (UTC)
2006-02-28 (20 years ago)
Launch vehicle
Unknown
Launch site
Tyuratam Missile And Space Complex (TTMTR)
Object type
Payload
Rocket body
Debris
Shape & HBR
Unknown shape, 0.1 m
Radar Cross Section
Medium (>0.1 m² and <1 m²)

Expand to show TLE details & history
Last TLE update: 2 days ago

TLE from 2 days ago
0 BREEZE-M DEB
1 34243U 06006BJ  26161.07161059  .00002402  00000-0  28953-2 0  9990
2 34243  51.6072 111.7512 5015897  71.2398 335.4160  5.39040462 57997
Epoch: 2026-06-10T01:43Z
TLE epoch observation values (Epoch: 2026-06-10T01:43:07.154Z)
Latitude
-0.00001°
Longitude
-172.47623°
Altitude
2,474.121 km
Speed
7.814 km/s
True Right ascension
07h 26m 57s
True Declination
0° 00' 00"
Sunlit
Object was in daylight at epoch
Visualization orbit readout
Latitude
Unknown
Longitude
Unknown
Altitude
Unknown
Speed
Unknown
Apparent Right ascension
Unknown
Apparent Declination
Unknown
Sunlit
N/A
Visualization observer readout
Local Sidereal Time
15:43:10
Azimuth
Unknown
Elevation
Unknown
Doppler factor
Unknown
Orbital elements
Apogee altitude
14,254.343 km
Perigee altitude
470.232 km
Semi-major axis
13,740.425 km
Eccentricity
0.50159
Inclination
51.6072°
RAAN
111.7512°
Arg. of periapsis
71.2398°
True anomaly
288.76708°
Mean anomaly
335.416°
Eccentric anomaly
315.14651°
Mean motion
1.34754 °/min
Orbital period
267.15 mins
BSTAR
0.0028953
Loading maneuver chart data...
Computing Atmospheric mass density...
Loading historical data...
Loading historical data...
Loading historical data...
Loading historical data...
Loading historical data...
Loading historical data...
Loading historical data...

Documentation

Showing up to 5 results
|